Time,TemperatureF,DewpointF,PressureIn,WindDirection,WindDirectionDegrees,WindSpeedMPH,WindSpeedGustMPH,Humidity,HourlyPrecipIn,Conditions,Clouds,dailyrainin,SoftwareType,DateUTC
2013-07-21 00:01:00,76.0,74.5,29.81,ENE,68,0.0,6.0,95,0.00,,,0.00,Weather View 32 v70,2013-07-21 04:01:00,
2013-07-21 00:02:00,76.0,74.5,29.81,SSE,158,3.0,6.0,95,0.00,,,0.00,Weather View 32 v70,2013-07-21 04:02:00,
2013-07-21 00:07:00,76.0,74.5,29.81,SSE,158,1.0,6.0,95,0.00,,,0.00,Weather View 32 v70,2013-07-21 04:07:00,
2013-07-21 00:12:00,76.0,74.5,29.81,WSW,248,1.0,6.0,95,0.00,,,0.00,Weather View 32 v70,2013-07-21 04:12:00,
2013-07-21 00:17:00,76.0,74.5,29.81,ENE,68,3.0,6.0,95,0.00,,,0.00,Weather View 32 v70,2013-07-21 04:17:00,
2013-07-21 00:22:00,76.0,74.8,29.81,South,180,2.0,6.0,96,0.00,,,0.00,Weather View 32 v70,2013-07-21 04:22:00,
2013-07-21 00:27:00,76.0,74.8,29.81,East,90,1.0,6.0,96,0.00,,,0.00,Weather View 32 v70,2013-07-21 04:27:00,
2013-07-21 00:32:00,76.0,74.8,29.81,SSE,158,1.0,6.0,96,0.00,,,0.00,Weather View 32 v70,2013-07-21 04:32:00,
2013-07-21 00:37:00,76.0,74.8,29.81,SSE,158,5.0,6.0,96,0.00,,,0.00,Weather View 32 v70,2013-07-21 04:37:00,
2013-07-21 00:42:00,76.0,74.8,29.81,SSE,158,3.0,6.0,96,0.00,,,0.00,Weather View 32 v70,2013-07-21 04:42:00,
2013-07-21 00:47:00,76.0,74.8,29.81,East,90,0.0,6.0,96,0.00,,,0.00,Weather View 32 v70,2013-07-21 04:47:00,
2013-07-21 00:52:00,76.0,74.8,29.80,East,90,3.0,6.0,96,0.00,,,0.00,Weather View 32 v70,2013-07-21 04:52:00,
2013-07-21 00:57:00,76.0,74.8,29.81,South,180,2.0,6.0,96,0.00,,,0.00,Weather View 32 v70,2013-07-21 04:57:00,
2013-07-21 01:02:00,76.0,74.8,29.81,ENE,68,2.0,7.0,96,0.00,,,0.00,Weather View 32 v70,2013-07-21 05:02:00,
2013-07-21 01:07:00,76.0,74.8,29.81,East,90,6.0,7.0,96,0.00,,,0.00,Weather View 32 v70,2013-07-21 05:07:00,
2013-07-21 01:12:00,76.0,75.1,29.81,East,90,3.0,8.0,97,0.00,,,0.00,Weather View 32 v70,2013-07-21 05:12:00,
2013-07-21 01:17:00,76.0,75.1,29.81,SSE,158,3.0,8.0,97,0.00,,,0.00,Weather View 32 v70,2013-07-21 05:17:00,
2013-07-21 01:22:00,76.0,75.1,29.81,East,90,3.0,8.0,97,0.00,,,0.00,Weather View 32 v70,2013-07-21 05:22:00,
2013-07-21 01:27:00,76.0,75.1,29.81,WSW,248,1.0,8.0,97,0.00,,,0.00,Weather View 32 v70,2013-07-21 05:27:00,
2013-07-21 01:32:00,76.0,75.4,29.81,East,90,3.0,8.0,98,0.00,,,0.00,Weather View 32 v70,2013-07-21 05:32:00,
2013-07-21 01:37:00,76.0,75.4,29.81,East,90,1.0,8.0,98,0.00,,,0.00,Weather View 32 v70,2013-07-21 05:37:00,
2013-07-21 01:42:00,75.0,74.7,29.81,South,180,3.0,8.0,99,0.00,,,0.00,Weather View 32 v70,2013-07-21 05:42:00,
2013-07-21 01:47:00,75.0,74.7,29.81,South,180,1.0,8.0,99,0.00,,,0.00,Weather View 32 v70,2013-07-21 05:47:00,
2013-07-21 01:53:00,75.0,74.7,29.80,SSE,158,3.0,8.0,99,0.00,,,0.00,Weather View 32 v70,2013-07-21 05:53:00,
2013-07-21 01:58:00,75.0,74.7,29.81,WSW,248,2.0,9.0,99,0.00,,,0.00,Weather View 32 v70,2013-07-21 05:58:00,
2013-07-21 02:03:00,75.0,75.0,29.80,East,90,1.0,9.0,100,0.00,,,0.00,Weather View 32 v70,2013-07-21 06:03:00,
2013-07-21 02:08:00,75.0,75.0,29.80,SSE,158,3.0,9.0,100,0.00,,,0.00,Weather View 32 v70,2013-07-21 06:08:00,
2013-07-21 02:13:00,75.0,75.0,29.80,East,90,2.0,9.0,100,0.00,,,0.00,Weather View 32 v70,2013-07-21 06:13:00,
2013-07-21 02:18:00,75.0,75.0,29.80,West,270,2.0,9.0,100,0.00,,,0.00,Weather View 32 v70,2013-07-21 06:18:00,
2013-07-21 02:23:00,75.0,75.0,29.80,South,180,1.0,9.0,100,0.00,,,0.00,Weather View 32 v70,2013-07-21 06:23:00,
2013-07-21 02:28:00,75.0,75.0,29.79,South,180,6.0,9.0,100,0.00,,,0.00,Weather View 32 v70,2013-07-21 06:28:00,
2013-07-21 02:33:00,75.0,75.0,29.79,WSW,248,4.0,9.0,100,0.00,,,0.00,Weather View 32 v70,2013-07-21 06:33:00,
2013-07-21 02:38:00,75.0,75.0,29.79,South,180,1.0,9.0,100,0.00,,,0.00,Weather View 32 v70,2013-07-21 06:38:00,
2013-07-21 02:43:00,75.0,75.0,29.79,WSW,248,0.0,9.0,100,0.00,,,0.00,Weather View 32 v70,2013-07-21 06:43:00,
2013-07-21 02:48:00,75.0,75.0,29.79,South,180,6.0,9.0,100,0.00,,,0.00,Weather View 32 v70,2013-07-21 06:48:00,
2013-07-21 02:53:00,75.0,75.0,29.79,SSE,158,1.0,9.0,100,0.00,,,0.00,Weather View 32 v70,2013-07-21 06:53:00,
2013-07-21 02:58:00,75.0,75.0,29.79,South,180,3.0,9.0,100,0.00,,,0.00,Weather View 32 v70,2013-07-21 06:58:00,
2013-07-21 03:03:00,75.0,75.0,29.78,South,180,5.0,10.0,100,0.00,,,0.00,Weather View 32 v70,2013-07-21 07:03:00,
2013-07-21 03:08:00,75.0,75.0,29.78,WSW,248,1.0,10.0,100,0.00,,,0.00,Weather View 32 v70,2013-07-21 07:08:00,
2013-07-21 03:13:00,75.0,75.0,29.78,East,90,1.0,10.0,100,0.00,,,0.00,Weather View 32 v70,2013-07-21 07:13:00,
2013-07-21 03:18:00,75.0,75.0,29.78,SSE,158,5.0,10.0,100,0.00,,,0.00,Weather View 32 v70,2013-07-21 07:18:00,
2013-07-21 03:23:00,75.0,75.0,29.78,SSE,158,2.0,10.0,100,0.00,,,0.00,Weather View 32 v70,2013-07-21 07:23:00,
2013-07-21 03:28:00,75.0,75.0,29.78,ENE,68,1.0,10.0,100,0.00,,,0.00,Weather View 32 v70,2013-07-21 07:28:00,
2013-07-21 03:33:00,75.0,75.0,29.78,East,90,3.0,10.0,100,0.00,,,0.00,Weather View 32 v70,2013-07-21 07:33:00,
2013-07-21 03:38:00,75.0,75.0,29.78,ENE,68,1.0,10.0,100,0.00,,,0.00,Weather View 32 v70,2013-07-21 07:38:00,
2013-07-21 03:43:00,75.0,75.0,29.78,South,180,5.0,11.0,100,0.00,,,0.00,Weather View 32 v70,2013-07-21 07:43:00,
2013-07-21 03:48:00,75.0,75.0,29.78,South,180,7.0,11.0,100,0.00,,,0.00,Weather View 32 v70,2013-07-21 07:48:00,
2013-07-21 03:53:00,75.0,75.0,29.78,South,180,5.0,11.0,100,0.00,,,0.00,Weather View 32 v70,2013-07-21 07:53:00,
2013-07-21 03:58:00,75.0,75.0,29.78,WSW,248,3.0,11.0,100,0.00,,,0.00,Weather View 32 v70,2013-07-21 07:58:00,
2013-07-21 04:03:00,75.0,75.0,29.78,South,180,6.0,11.0,100,0.00,,,0.00,Weather View 32 v70,2013-07-21 08:03:00,
2013-07-21 04:08:00,75.0,75.0,29.78,WSW,248,3.0,11.0,100,0.00,,,0.00,Weather View 32 v70,2013-07-21 08:08:00,
2013-07-21 04:13:00,75.0,75.0,29.78,South,180,1.0,11.0,100,0.00,,,0.00,Weather View 32 v70,2013-07-21 08:13:00,
2013-07-21 04:18:00,75.0,75.0,29.78,South,180,3.0,11.0,100,0.00,,,0.00,Weather View 32 v70,2013-07-21 08:18:00,
2013-07-21 04:23:00,75.0,75.0,29.78,South,180,1.0,11.0,100,0.00,,,0.00,Weather View 32 v70,2013-07-21 08:23:00,
2013-07-21 04:28:00,75.0,75.0,29.78,WSW,248,3.0,11.0,100,0.00,,,0.00,Weather View 32 v70,2013-07-21 08:28:00,
2013-07-21 04:33:00,75.0,75.0,29.78,WSW,248,1.0,11.0,100,0.00,,,0.00,Weather View 32 v70,2013-07-21 08:33:00,
2013-07-21 04:38:00,75.0,75.0,29.77,WSW,248,1.0,11.0,100,0.00,,,0.00,Weather View 32 v70,2013-07-21 08:38:00,
2013-07-21 04:43:00,75.0,75.0,29.77,South,180,3.0,10.0,100,0.00,,,0.00,Weather View 32 v70,2013-07-21 08:43:00,
2013-07-21 04:49:00,75.0,75.0,29.77,South,180,1.0,10.0,100,0.00,,,0.00,Weather View 32 v70,2013-07-21 08:49:00,
2013-07-21 04:54:00,75.0,75.0,29.78,WSW,248,3.0,10.0,100,0.00,,,0.00,Weather View 32 v70,2013-07-21 08:54:00,
2013-07-21 04:59:00,75.0,75.0,29.78,South,180,0.0,10.0,100,0.00,,,0.00,Weather View 32 v70,2013-07-21 08:59:00,
2013-07-21 05:04:00,75.0,75.0,29.78,WSW,248,1.0,10.0,100,0.00,,,0.00,Weather View 32 v70,2013-07-21 09:04:00,
2013-07-21 05:09:00,75.0,75.0,29.78,WSW,248,0.0,8.0,100,0.00,,,0.00,Weather View 32 v70,2013-07-21 09:09:00,
2013-07-21 05:14:00,75.0,75.0,29.78,ENE,68,0.0,6.0,100,0.00,,,0.00,Weather View 32 v70,2013-07-21 09:14:00,
2013-07-21 05:19:00,75.0,75.0,29.77,South,180,3.0,6.0,100,0.00,,,0.00,Weather View 32 v70,2013-07-21 09:19:00,
2013-07-21 05:24:00,75.0,75.0,29.77,WSW,248,2.0,6.0,100,0.00,,,0.00,Weather View 32 v70,2013-07-21 09:24:00,
2013-07-21 05:29:00,75.0,75.0,29.77,East,90,0.0,8.0,100,0.00,,,0.00,Weather View 32 v70,2013-07-21 09:29:00,
2013-07-21 05:34:00,75.0,75.0,29.77,WSW,248,3.0,8.0,100,0.00,,,0.00,Weather View 32 v70,2013-07-21 09:34:00,
2013-07-21 05:39:00,75.0,75.0,29.77,South,180,3.0,8.0,100,0.00,,,0.00,Weather View 32 v70,2013-07-21 09:39:00,
2013-07-21 05:44:00,75.0,75.0,29.77,WSW,248,3.0,8.0,100,0.00,,,0.00,Weather View 32 v70,2013-07-21 09:44:00,
2013-07-21 05:49:00,75.0,75.0,29.77,WSW,248,2.0,8.0,100,0.00,,,0.00,Weather View 32 v70,2013-07-21 09:49:00,
2013-07-21 05:54:00,75.0,75.0,29.77,South,180,1.0,8.0,100,0.00,,,0.00,Weather View 32 v70,2013-07-21 09:54:00,
2013-07-21 05:59:00,75.0,75.0,29.77,NNW,338,3.0,8.0,100,0.00,,,0.00,Weather View 32 v70,2013-07-21 09:59:00,
2013-07-21 06:04:00,75.0,75.0,29.78,WSW,248,2.0,8.0,100,0.00,,,0.00,Weather View 32 v70,2013-07-21 10:04:00,
2013-07-21 06:09:00,75.0,75.0,29.77,South,180,1.0,8.0,100,0.00,,,0.00,Weather View 32 v70,2013-07-21 10:09:00,
2013-07-21 06:14:00,75.0,75.0,29.77,West,270,3.0,8.0,100,0.00,,,0.00,Weather View 32 v70,2013-07-21 10:14:00,
2013-07-21 06:19:00,75.0,75.0,29.77,South,180,1.0,8.0,100,0.00,,,0.00,Weather View 32 v70,2013-07-21 10:19:00,
2013-07-21 06:24:00,75.0,75.0,29.77,South,180,1.0,8.0,100,0.00,,,0.00,Weather View 32 v70,2013-07-21 10:24:00,
2013-07-21 06:29:00,75.0,75.0,29.78,South,180,4.0,7.0,100,0.00,,,0.00,Weather View 32 v70,2013-07-21 10:29:00,
2013-07-21 06:34:00,75.0,75.0,29.78,South,180,3.0,7.0,100,0.00,,,0.00,Weather View 32 v70,2013-07-21 10:34:00,
2013-07-21 06:39:00,75.0,75.0,29.78,South,180,1.0,7.0,100,0.00,,,0.00,Weather View 32 v70,2013-07-21 10:39:00,
2013-07-21 06:44:00,75.0,75.0,29.79,South,180,3.0,7.0,100,0.00,,,0.00,Weather View 32 v70,2013-07-21 10:44:00,
2013-07-21 06:49:00,75.0,75.0,29.79,WSW,248,2.0,7.0,100,0.00,,,0.00,Weather View 32 v70,2013-07-21 10:49:00,
2013-07-21 06:54:00,75.0,75.0,29.78,WSW,248,3.0,7.0,100,0.00,,,0.00,Weather View 32 v70,2013-07-21 10:54:00,
2013-07-21 06:59:00,75.0,75.0,29.78,WSW,248,2.0,7.0,100,0.00,,,0.00,Weather View 32 v70,2013-07-21 10:59:00,
2013-07-21 07:04:00,75.0,75.0,29.78,East,90,0.0,7.0,100,0.00,,,0.00,Weather View 32 v70,2013-07-21 11:04:00,
2013-07-21 07:09:00,75.0,75.0,29.79,WSW,248,2.0,7.0,100,0.00,,,0.00,Weather View 32 v70,2013-07-21 11:09:00,
2013-07-21 07:14:00,75.0,75.0,29.79,WSW,248,5.0,7.0,100,0.00,,,0.00,Weather View 32 v70,2013-07-21 11:14:00,
2013-07-21 07:19:00,75.0,75.0,29.79,South,180,1.0,7.0,100,0.00,,,0.00,Weather View 32 v70,2013-07-21 11:19:00,
2013-07-21 07:25:00,75.0,75.0,29.79,West,270,3.0,7.0,100,0.00,,,0.00,Weather View 32 v70,2013-07-21 11:25:00,
2013-07-21 07:30:00,75.0,75.0,29.80,West,270,2.0,7.0,100,0.00,,,0.00,Weather View 32 v70,2013-07-21 11:30:00,
2013-07-21 07:35:00,75.0,75.0,29.80,WSW,248,2.0,7.0,100,0.00,,,0.00,Weather View 32 v70,2013-07-21 11:35:00,
2013-07-21 07:40:00,75.0,75.0,29.80,South,180,2.0,7.0,100,0.00,,,0.00,Weather View 32 v70,2013-07-21 11:40:00,
2013-07-21 07:45:00,75.0,75.0,29.80,WSW,248,3.0,8.0,100,0.00,,,0.00,Weather View 32 v70,2013-07-21 11:45:00,
2013-07-21 07:50:00,75.0,75.0,29.81,West,270,2.0,8.0,100,0.00,,,0.00,Weather View 32 v70,2013-07-21 11:50:00,
2013-07-21 07:55:00,75.0,75.0,29.81,South,180,1.0,8.0,100,0.00,,,0.00,Weather View 32 v70,2013-07-21 11:55:00,
2013-07-21 08:00:00,75.0,75.0,29.81,WSW,248,4.0,8.0,100,0.00,,,0.00,Weather View 32 v70,2013-07-21 12:00:00,
2013-07-21 08:05:00,75.0,75.0,29.81,WSW,248,5.0,8.0,100,0.00,,,0.00,Weather View 32 v70,2013-07-21 12:05:00,
2013-07-21 08:10:00,76.0,76.0,29.81,WSW,248,5.0,8.0,100,0.00,,,0.00,Weather View 32 v70,2013-07-21 12:10:00,
2013-07-21 08:15:00,76.0,76.0,29.81,WSW,248,5.0,8.0,100,0.00,,,0.00,Weather View 32 v70,2013-07-21 12:15:00,
2013-07-21 08:20:00,76.0,76.0,29.82,West,270,4.0,8.0,100,0.00,,,0.00,Weather View 32 v70,2013-07-21 12:20:00,
2013-07-21 08:25:00,76.0,76.0,29.82,South,180,0.0,8.0,100,0.00,,,0.00,Weather View 32 v70,2013-07-21 12:25:00,
2013-07-21 08:30:00,76.0,76.0,29.82,South,180,2.0,8.0,100,0.00,,,0.00,Weather View 32 v70,2013-07-21 12:30:00,
2013-07-21 08:35:00,76.0,76.0,29.82,South,180,1.0,8.0,100,0.00,,,0.00,Weather View 32 v70,2013-07-21 12:35:00,
2013-07-21 08:40:00,76.0,76.0,29.82,South,180,2.0,8.0,100,0.00,,,0.00,Weather View 32 v70,2013-07-21 12:40:00,
2013-07-21 08:45:00,76.0,76.0,29.82,South,180,1.0,8.0,100,0.00,,,0.00,Weather View 32 v70,2013-07-21 12:45:00,
2013-07-21 08:50:00,76.0,75.7,29.82,WSW,248,6.0,8.0,99,0.00,,,0.00,Weather View 32 v70,2013-07-21 12:50:00,
2013-07-21 08:55:00,76.0,75.7,29.82,WSW,248,1.0,9.0,99,0.00,,,0.00,Weather View 32 v70,2013-07-21 12:55:00,
2013-07-21 09:00:00,76.0,75.7,29.82,SSE,158,2.0,9.0,99,0.00,,,0.00,Weather View 32 v70,2013-07-21 13:00:00,
2013-07-21 09:05:00,76.0,75.7,29.82,South,180,4.0,9.0,99,0.00,,,0.00,Weather View 32 v70,2013-07-21 13:05:00,
2013-07-21 09:10:00,76.0,75.7,29.83,WSW,248,3.0,9.0,99,0.00,,,0.00,Weather View 32 v70,2013-07-21 13:10:00,
2013-07-21 09:15:00,76.0,75.7,29.83,South,180,3.0,9.0,99,0.00,,,0.00,Weather View 32 v70,2013-07-21 13:15:00,
2013-07-21 09:20:00,76.0,75.7,29.83,WSW,248,2.0,9.0,99,0.00,,,0.00,Weather View 32 v70,2013-07-21 13:20:00,
2013-07-21 09:25:00,76.0,75.4,29.83,SSE,158,1.0,9.0,98,0.00,,,0.00,Weather View 32 v70,2013-07-21 13:25:00,
2013-07-21 09:30:00,76.0,75.7,29.83,South,180,1.0,9.0,99,0.00,,,0.00,Weather View 32 v70,2013-07-21 13:30:00,
2013-07-21 09:35:00,76.0,75.4,29.83,South,180,3.0,9.0,98,0.00,,,0.00,Weather View 32 v70,2013-07-21 13:35:00,
2013-07-21 09:40:00,76.0,75.4,29.83,WSW,248,2.0,9.0,98,0.00,,,0.00,Weather View 32 v70,2013-07-21 13:40:00,
2013-07-21 09:45:00,76.0,75.4,29.83,West,270,3.0,9.0,98,0.00,,,0.00,Weather View 32 v70,2013-07-21 13:45:00,
2013-07-21 09:50:00,77.0,76.4,29.83,WSW,248,1.0,9.0,98,0.00,,,0.00,Weather View 32 v70,2013-07-21 13:50:00,
2013-07-21 09:55:00,77.0,76.1,29.83,WSW,248,3.0,8.0,97,0.00,,,0.00,Weather View 32 v70,2013-07-21 13:55:00,
2013-07-21 10:00:00,77.0,75.8,29.83,WSW,248,1.0,8.0,96,0.00,,,0.00,Weather View 32 v70,2013-07-21 14:00:00,
2013-07-21 10:06:00,77.0,75.8,29.84,South,180,5.0,8.0,96,0.00,,,0.00,Weather View 32 v70,2013-07-21 14:06:00,
2013-07-21 10:11:00,77.0,75.4,29.83,WSW,248,3.0,8.0,95,0.00,,,0.00,Weather View 32 v70,2013-07-21 14:11:00,
2013-07-21 10:16:00,77.0,75.4,29.84,West,270,3.0,8.0,95,0.00,,,0.00,Weather View 32 v70,2013-07-21 14:16:00,
2013-07-21 10:21:00,77.0,75.4,29.84,West,270,5.0,8.0,95,0.00,,,0.00,Weather View 32 v70,2013-07-21 14:21:00,
2013-07-21 10:26:00,77.0,75.4,29.84,WSW,248,4.0,10.0,95,0.00,,,0.00,Weather View 32 v70,2013-07-21 14:26:00,
2013-07-21 10:31:00,77.0,75.4,29.84,South,180,1.0,10.0,95,0.00,,,0.00,Weather View 32 v70,2013-07-21 14:31:00,
2013-07-21 10:36:00,77.0,75.4,29.84,SSE,158,2.0,10.0,95,0.00,,,0.00,Weather View 32 v70,2013-07-21 14:36:00,
2013-07-21 10:41:00,77.0,75.4,29.84,WSW,248,3.0,10.0,95,0.00,,,0.00,Weather View 32 v70,2013-07-21 14:41:00,
2013-07-21 10:46:00,78.0,76.4,29.84,WSW,248,3.0,10.0,95,0.00,,,0.00,Weather View 32 v70,2013-07-21 14:46:00,
2013-07-21 10:51:00,78.0,76.1,29.84,South,180,5.0,10.0,94,0.00,,,0.00,Weather View 32 v70,2013-07-21 14:51:00,
2013-07-21 10:56:00,78.0,76.1,29.84,East,90,0.0,10.0,94,0.00,,,0.00,Weather View 32 v70,2013-07-21 14:56:00,
2013-07-21 11:01:00,78.0,76.1,29.84,East,90,1.0,10.0,94,0.00,,,0.00,Weather View 32 v70,2013-07-21 15:01:00,
2013-07-21 11:06:00,78.0,75.8,29.84,SSE,158,1.0,10.0,93,0.00,,,0.00,Weather View 32 v70,2013-07-21 15:06:00,
2013-07-21 11:11:00,79.0,76.8,29.84,South,180,3.0,10.0,93,0.00,,,0.00,Weather View 32 v70,2013-07-21 15:11:00,
2013-07-21 11:16:00,80.0,77.5,29.84,WSW,248,5.0,10.0,92,0.00,,,0.00,Weather View 32 v70,2013-07-21 15:16:00,
2013-07-21 11:21:00,80.0,76.8,29.84,South,180,5.0,10.0,90,0.00,,,0.00,Weather View 32 v70,2013-07-21 15:21:00,
2013-07-21 11:26:00,80.0,76.8,29.84,East,90,0.0,9.0,90,0.00,,,0.00,Weather View 32 v70,2013-07-21 15:26:00,
2013-07-21 11:31:00,80.0,76.4,29.84,NNW,338,3.0,9.0,89,0.00,,,0.00,Weather View 32 v70,2013-07-21 15:31:00,
2013-07-21 11:36:00,81.0,77.1,29.84,ENE,68,1.0,9.0,88,0.00,,,0.00,Weather View 32 v70,2013-07-21 15:36:00,
2013-07-21 11:41:00,81.0,76.7,29.84,East,90,1.0,9.0,87,0.00,,,0.00,Weather View 32 v70,2013-07-21 15:41:00,
2013-07-21 11:46:00,81.0,76.7,29.84,West,270,3.0,9.0,87,0.00,,,0.00,Weather View 32 v70,2013-07-21 15:46:00,
2013-07-21 11:51:00,81.0,76.7,29.84,SSE,158,3.0,8.0,87,0.00,,,0.00,Weather View 32 v70,2013-07-21 15:51:00,
2013-07-21 11:56:00,82.0,77.4,29.84,West,270,3.0,8.0,86,0.00,,,0.00,Weather View 32 v70,2013-07-21 15:56:00,
2013-07-21 12:01:00,82.0,77.4,29.83,WSW,248,3.0,8.0,86,0.00,,,0.00,Weather View 32 v70,2013-07-21 16:01:00,
2013-07-21 12:06:00,82.0,77.4,29.83,ENE,68,1.0,8.0,86,0.00,,,0.00,Weather View 32 v70,2013-07-21 16:06:00,
2013-07-21 12:11:00,83.0,78.0,29.83,SSE,158,3.0,8.0,85,0.00,,,0.00,Weather View 32 v70,2013-07-21 16:11:00,
2013-07-21 12:16:00,84.0,78.3,29.83,WSW,248,5.0,9.0,83,0.00,,,0.00,Weather View 32 v70,2013-07-21 16:16:00,
2013-07-21 12:21:00,85.0,78.9,29.83,East,90,5.0,9.0,82,0.00,,,0.00,Weather View 32 v70,2013-07-21 16:21:00,
2013-07-21 12:26:00,85.0,78.5,29.83,WSW,248,5.0,9.0,81,0.00,,,0.00,Weather View 32 v70,2013-07-21 16:26:00,
2013-07-21 12:31:00,85.0,77.7,29.83,ENE,68,0.0,9.0,79,0.00,,,0.00,Weather View 32 v70,2013-07-21 16:31:00,
2013-07-21 12:36:00,85.0,77.7,29.83,ENE,68,0.0,9.0,79,0.00,,,0.00,Weather View 32 v70,2013-07-21 16:36:00,
2013-07-21 12:41:00,85.0,77.7,29.82,South,180,5.0,9.0,79,0.00,,,0.00,Weather View 32 v70,2013-07-21 16:41:00,
2013-07-21 12:47:00,86.0,78.3,29.82,South,180,5.0,9.0,78,0.00,,,0.00,Weather View 32 v70,2013-07-21 16:47:00,
2013-07-21 12:52:00,86.0,77.9,29.82,WSW,248,3.0,9.0,77,0.00,,,0.00,Weather View 32 v70,2013-07-21 16:52:00,
2013-07-21 12:57:00,86.0,77.1,29.82,WSW,248,1.0,9.0,75,0.00,,,0.00,Weather View 32 v70,2013-07-21 16:57:00,
2013-07-21 13:02:00,87.0,78.1,29.81,South,180,3.0,9.0,75,0.00,,,0.00,Weather View 32 v70,2013-07-21 17:02:00,
2013-07-21 13:07:00,87.0,78.1,29.81,SSE,158,2.0,9.0,75,0.00,,,0.00,Weather View 32 v70,2013-07-21 17:07:00,
2013-07-21 13:12:00,87.0,78.5,29.81,WSW,248,3.0,9.0,76,0.00,,,0.00,Weather View 32 v70,2013-07-21 17:12:00,
2013-07-21 13:17:00,86.0,76.7,29.81,South,180,3.0,8.0,74,0.00,,,0.00,Weather View 32 v70,2013-07-21 17:17:00,
2013-07-21 13:22:00,86.0,77.1,29.81,South,180,3.0,8.0,75,0.00,,,0.00,Weather View 32 v70,2013-07-21 17:22:00,
2013-07-21 13:27:00,85.0,76.5,29.81,SSE,158,2.0,8.0,76,0.00,,,0.00,Weather View 32 v70,2013-07-21 17:27:00,
2013-07-21 13:32:00,85.0,76.5,29.80,ENE,68,3.0,8.0,76,0.00,,,0.00,Weather View 32 v70,2013-07-21 17:32:00,
2013-07-21 13:37:00,85.0,76.9,29.80,ENE,68,1.0,8.0,77,0.00,,,0.00,Weather View 32 v70,2013-07-21 17:37:00,
2013-07-21 13:42:00,86.0,77.9,29.80,North,0,2.0,8.0,77,0.00,,,0.00,Weather View 32 v70,2013-07-21 17:42:00,
2013-07-21 13:47:00,86.0,77.9,29.80,ENE,68,2.0,8.0,77,0.00,,,0.00,Weather View 32 v70,2013-07-21 17:47:00,
2013-07-21 13:52:00,86.0,77.5,29.80,WSW,248,3.0,10.0,76,0.00,,,0.00,Weather View 32 v70,2013-07-21 17:52:00,
2013-07-21 13:57:00,86.0,77.9,29.79,South,180,4.0,10.0,77,0.00,,,0.00,Weather View 32 v70,2013-07-21 17:57:00,
2013-07-21 14:02:00,86.0,77.5,29.79,West,270,2.0,10.0,76,0.00,,,0.00,Weather View 32 v70,2013-07-21 18:02:00,
2013-07-21 14:07:00,87.0,78.1,29.79,West,270,3.0,10.0,75,0.00,,,0.00,Weather View 32 v70,2013-07-21 18:07:00,
2013-07-21 14:12:00,88.0,78.6,29.79,East,90,1.0,10.0,74,0.00,,,0.00,Weather View 32 v70,2013-07-21 18:12:00,
2013-07-21 14:17:00,87.0,77.7,29.79,WSW,248,3.0,10.0,74,0.00,,,0.00,Weather View 32 v70,2013-07-21 18:17:00,
2013-07-21 14:22:00,86.0,76.7,29.79,WSW,248,3.0,10.0,74,0.00,,,0.00,Weather View 32 v70,2013-07-21 18:22:00,
2013-07-21 14:27:00,87.0,78.1,29.78,WSW,248,4.0,10.0,75,0.00,,,0.00,Weather View 32 v70,2013-07-21 18:27:00,
2013-07-21 14:32:00,87.0,77.7,29.78,East,90,0.0,10.0,74,0.00,,,0.00,Weather View 32 v70,2013-07-21 18:32:00,
2013-07-21 14:37:00,88.0,77.4,29.78,East,90,1.0,10.0,71,0.00,,,0.00,Weather View 32 v70,2013-07-21 18:37:00,
2013-07-21 14:42:00,87.0,76.8,29.77,East,90,5.0,10.0,72,0.00,,,0.00,Weather View 32 v70,2013-07-21 18:42:00,
2013-07-21 14:47:00,88.0,78.6,29.77,South,180,3.0,10.0,74,0.00,,,0.00,Weather View 32 v70,2013-07-21 18:47:00,
2013-07-21 14:52:00,88.0,77.8,29.77,ENE,68,1.0,8.0,72,0.00,,,0.00,Weather View 32 v70,2013-07-21 18:52:00,
2013-07-21 14:57:00,88.0,77.4,29.77,ENE,68,1.0,7.0,71,0.00,,,0.00,Weather View 32 v70,2013-07-21 18:57:00,
2013-07-21 15:02:00,88.0,77.4,29.77,SSE,158,0.0,6.0,71,0.00,,,0.00,Weather View 32 v70,2013-07-21 19:02:00,
2013-07-21 15:07:00,89.0,78.3,29.77,South,180,3.0,6.0,71,0.00,,,0.00,Weather View 32 v70,2013-07-21 19:07:00,
2013-07-21 15:12:00,89.0,77.5,29.76,ENE,68,3.0,6.0,69,0.00,,,0.00,Weather View 32 v70,2013-07-21 19:12:00,
2013-07-21 15:17:00,89.0,77.0,29.77,SSE,158,1.0,6.0,68,0.00,,,0.00,Weather View 32 v70,2013-07-21 19:17:00,
2013-07-21 15:22:00,89.0,77.0,29.76,WSW,248,2.0,6.0,68,0.00,,,0.00,Weather View 32 v70,2013-07-21 19:22:00,
2013-07-21 15:27:00,88.0,76.9,29.76,East,90,0.0,6.0,70,0.00,,,0.00,Weather View 32 v70,2013-07-21 19:27:00,
2013-07-21 15:32:00,87.0,77.3,29.76,East,90,0.0,6.0,73,0.00,,,0.00,Weather View 32 v70,2013-07-21 19:32:00,
2013-07-21 15:38:00,87.0,76.4,29.75,ENE,68,1.0,6.0,71,0.00,,,0.00,Weather View 32 v70,2013-07-21 19:38:00,
2013-07-21 15:43:00,87.0,76.8,29.75,East,90,0.0,6.0,72,0.00,,,0.00,Weather View 32 v70,2013-07-21 19:43:00,
2013-07-21 15:48:00,88.0,77.4,29.75,East,90,0.0,7.0,71,0.00,,,0.00,Weather View 32 v70,2013-07-21 19:48:00,
2013-07-21 15:53:00,88.0,77.4,29.75,ENE,68,2.0,7.0,71,0.00,,,0.00,Weather View 32 v70,2013-07-21 19:53:00,
2013-07-21 15:58:00,89.0,78.3,29.75,ENE,68,0.0,7.0,71,0.00,,,0.00,Weather View 32 v70,2013-07-21 19:58:00,
2013-07-21 16:03:00,89.0,77.5,29.75,East,90,2.0,7.0,69,0.00,,,0.00,Weather View 32 v70,2013-07-21 20:03:00,
2013-07-21 16:08:00,89.0,77.5,29.75,WSW,248,1.0,7.0,69,0.00,,,0.00,Weather View 32 v70,2013-07-21 20:08:00,
2013-07-21 16:13:00,88.0,75.2,29.74,North,0,0.0,7.0,66,0.00,,,0.00,Weather View 32 v70,2013-07-21 20:13:00,
2013-07-21 16:18:00,88.0,76.5,29.74,South,180,2.0,7.0,69,0.00,,,0.00,Weather View 32 v70,2013-07-21 20:18:00,
2013-07-21 16:23:00,88.0,77.4,29.74,WSW,248,1.0,7.0,71,0.00,,,0.00,Weather View 32 v70,2013-07-21 20:23:00,
2013-07-21 16:28:00,88.0,76.5,29.74,East,90,3.0,7.0,69,0.00,,,0.00,Weather View 32 v70,2013-07-21 20:28:00,
2013-07-21 16:33:00,88.0,76.5,29.74,East,90,4.0,7.0,69,0.00,,,0.00,Weather View 32 v70,2013-07-21 20:33:00,
2013-07-21 16:38:00,88.0,76.5,29.74,East,90,2.0,7.0,69,0.00,,,0.00,Weather View 32 v70,2013-07-21 20:38:00,
2013-07-21 16:43:00,88.0,77.4,29.74,South,180,0.0,7.0,71,0.00,,,0.00,Weather View 32 v70,2013-07-21 20:43:00,
2013-07-21 16:48:00,87.0,76.8,29.74,East,90,0.0,7.0,72,0.00,,,0.00,Weather View 32 v70,2013-07-21 20:48:00,
2013-07-21 16:53:00,87.0,76.8,29.73,North,0,1.0,7.0,72,0.00,,,0.00,Weather View 32 v70,2013-07-21 20:53:00,
2013-07-21 16:58:00,88.0,77.4,29.73,ENE,68,2.0,7.0,71,0.00,,,0.00,Weather View 32 v70,2013-07-21 20:58:00,
2013-07-21 17:03:00,88.0,76.9,29.73,South,180,2.0,6.0,70,0.00,,,0.00,Weather View 32 v70,2013-07-21 21:03:00,
2013-07-21 17:08:00,88.0,76.9,29.73,South,180,3.0,7.0,70,0.00,,,0.00,Weather View 32 v70,2013-07-21 21:08:00,
2013-07-21 17:13:00,88.0,76.1,29.74,East,90,2.0,7.0,68,0.00,,,0.00,Weather View 32 v70,2013-07-21 21:13:00,
2013-07-21 17:18:00,88.0,77.4,29.74,East,90,3.0,7.0,71,0.00,,,0.00,Weather View 32 v70,2013-07-21 21:18:00,
2013-07-21 17:23:00,88.0,77.8,29.73,South,180,2.0,7.0,72,0.00,,,0.00,Weather View 32 v70,2013-07-21 21:23:00,
2013-07-21 17:28:00,87.0,76.8,29.73,East,90,0.0,7.0,72,0.00,,,0.00,Weather View 32 v70,2013-07-21 21:28:00,
2013-07-21 17:33:00,87.0,76.8,29.73,SSE,158,1.0,7.0,72,0.00,,,0.00,Weather View 32 v70,2013-07-21 21:33:00,
2013-07-21 17:38:00,86.0,75.9,29.73,ENE,68,1.0,7.0,72,0.00,,,0.00,Weather View 32 v70,2013-07-21 21:38:00,
2013-07-21 17:43:00,86.0,76.7,29.73,East,90,1.0,7.0,74,0.00,,,0.00,Weather View 32 v70,2013-07-21 21:43:00,
2013-07-21 17:48:00,86.0,77.1,29.73,WSW,248,8.0,10.0,75,0.00,,,0.00,Weather View 32 v70,2013-07-21 21:48:00,
2013-07-21 17:53:00,85.0,76.9,29.73,West,270,2.0,13.0,77,0.00,,,0.00,Weather View 32 v70,2013-07-21 21:53:00,
2013-07-21 17:58:00,85.0,77.3,29.73,South,180,8.0,13.0,78,0.00,,,0.00,Weather View 32 v70,2013-07-21 21:58:00,
2013-07-21 18:03:00,84.0,76.8,29.73,East,90,2.0,13.0,79,0.00,,,0.00,Weather View 32 v70,2013-07-21 22:03:00,
2013-07-21 18:09:00,83.0,76.5,29.73,SSE,158,1.0,13.0,81,0.00,,,0.00,Weather View 32 v70,2013-07-21 22:09:00,
2013-07-21 18:14:00,82.0,75.9,29.74,North,0,2.0,13.0,82,0.00,,,0.00,Weather View 32 v70,2013-07-21 22:14:00,
2013-07-21 18:19:00,80.0,75.1,29.75,West,270,3.0,13.0,85,0.00,,,0.00,Weather View 32 v70,2013-07-21 22:19:00,
2013-07-21 18:20:00,80.0,75.1,29.75,South,180,3.0,13.0,85,0.00,,,0.00,Weather View 32 v70,2013-07-21 22:20:00,
2013-07-21 20:07:00,76.0,75.1,29.76,NNW,338,0.0,1.0,97,0.00,,,0.00,Weather View 32 v70,2013-07-22 00:07:00,
2013-07-21 20:12:00,76.0,75.4,29.77,South,180,1.0,2.0,98,0.00,,,0.00,Weather View 32 v70,2013-07-22 00:12:00,
2013-07-21 20:17:00,76.0,75.7,29.77,SSE,158,1.0,2.0,99,0.00,,,0.00,Weather View 32 v70,2013-07-22 00:17:00,
2013-07-21 20:22:00,76.0,76.0,29.77,East,90,1.0,2.0,100,0.00,,,0.00,Weather View 32 v70,2013-07-22 00:22:00,
2013-07-21 20:27:00,76.0,76.0,29.77,East,90,0.0,2.0,100,0.01,,,0.01,Weather View 32 v70,2013-07-22 00:27:00,
2013-07-21 20:32:00,76.0,76.0,29.77,East,90,0.0,2.0,100,0.01,,,0.01,Weather View 32 v70,2013-07-22 00:32:00,
2013-07-21 20:37:00,76.0,76.0,29.77,East,90,3.0,4.0,100,0.01,,,0.01,Weather View 32 v70,2013-07-22 00:37:00,
2013-07-21 20:42:00,76.0,76.0,29.77,SSE,158,3.0,4.0,100,0.01,,,0.01,Weather View 32 v70,2013-07-22 00:42:00,
2013-07-21 20:47:00,75.0,75.0,29.77,East,90,0.0,4.0,100,0.01,,,0.01,Weather View 32 v70,2013-07-22 00:47:00,
2013-07-21 20:52:00,75.0,75.0,29.77,East,90,3.0,4.0,100,0.01,,,0.01,Weather View 32 v70,2013-07-22 00:52:00,
2013-07-21 20:57:00,75.0,75.0,29.77,ENE,68,0.0,4.0,100,0.01,,,0.01,Weather View 32 v70,2013-07-22 00:57:00,
2013-07-21 21:02:00,75.0,75.0,29.77,East,90,1.0,4.0,100,0.01,,,0.01,Weather View 32 v70,2013-07-22 01:02:00,
2013-07-21 21:07:00,75.0,75.0,29.77,SSE,158,3.0,4.0,100,0.02,,,0.02,Weather View 32 v70,2013-07-22 01:07:00,
2013-07-21 21:12:00,75.0,75.0,29.77,East,90,1.0,5.0,100,0.02,,,0.02,Weather View 32 v70,2013-07-22 01:12:00,
2013-07-21 21:17:00,75.0,75.0,29.77,South,180,2.0,5.0,100,0.02,,,0.02,Weather View 32 v70,2013-07-22 01:17:00,
2013-07-21 21:22:00,75.0,75.0,29.77,East,90,4.0,5.0,100,0.02,,,0.02,Weather View 32 v70,2013-07-22 01:22:00,
2013-07-21 21:27:00,75.0,75.0,29.78,SSE,158,0.0,6.0,100,0.01,,,0.02,Weather View 32 v70,2013-07-22 01:27:00,
2013-07-21 21:32:00,75.0,75.0,29.78,SSE,158,2.0,6.0,100,0.01,,,0.02,Weather View 32 v70,2013-07-22 01:32:00,
2013-07-21 21:37:00,75.0,75.0,29.78,East,90,3.0,6.0,100,0.01,,,0.02,Weather View 32 v70,2013-07-22 01:37:00,
2013-07-21 21:42:00,75.0,75.0,29.79,SSE,158,1.0,6.0,100,0.01,,,0.02,Weather View 32 v70,2013-07-22 01:42:00,
2013-07-21 21:47:00,75.0,75.0,29.78,East,90,2.0,6.0,100,0.01,,,0.02,Weather View 32 v70,2013-07-22 01:47:00,
2013-07-21 21:52:00,75.0,75.0,29.78,East,90,0.0,6.0,100,0.01,,,0.02,Weather View 32 v70,2013-07-22 01:52:00,
2013-07-21 21:57:00,75.0,75.0,29.78,SSE,158,2.0,6.0,100,0.01,,,0.02,Weather View 32 v70,2013-07-22 01:57:00,
2013-07-21 22:02:00,75.0,75.0,29.78,SSE,158,3.0,6.0,100,0.01,,,0.02,Weather View 32 v70,2013-07-22 02:02:00,
2013-07-21 22:07:00,75.0,75.0,29.78,East,90,2.0,6.0,100,0.00,,,0.02,Weather View 32 v70,2013-07-22 02:07:00,
2013-07-21 22:12:00,75.0,75.0,29.78,East,90,1.0,6.0,100,0.00,,,0.02,Weather View 32 v70,2013-07-22 02:12:00,
2013-07-21 22:17:00,75.0,75.0,29.79,SSE,158,0.0,6.0,100,0.00,,,0.02,Weather View 32 v70,2013-07-22 02:17:00,
2013-07-21 22:22:00,75.0,75.0,29.79,East,90,0.0,6.0,100,0.00,,,0.02,Weather View 32 v70,2013-07-22 02:22:00,
2013-07-21 22:27:00,75.0,75.0,29.79,SSE,158,1.0,5.0,100,0.00,,,0.02,Weather View 32 v70,2013-07-22 02:27:00,
2013-07-21 22:32:00,75.0,75.0,29.79,East,90,0.0,5.0,100,0.00,,,0.02,Weather View 32 v70,2013-07-22 02:32:00,
2013-07-21 22:37:00,75.0,75.0,29.79,East,90,0.0,5.0,100,0.00,,,0.02,Weather View 32 v70,2013-07-22 02:37:00,
2013-07-21 22:42:00,75.0,75.0,29.79,East,90,0.0,5.0,100,0.00,,,0.02,Weather View 32 v70,2013-07-22 02:42:00,
2013-07-21 22:47:00,75.0,75.0,29.79,East,90,0.0,5.0,100,0.00,,,0.02,Weather View 32 v70,2013-07-22 02:47:00,
2013-07-21 22:52:00,75.0,75.0,29.79,ENE,68,1.0,5.0,100,0.00,,,0.02,Weather View 32 v70,2013-07-22 02:52:00,
2013-07-21 22:57:00,75.0,75.0,29.80,South,180,2.0,5.0,100,0.00,,,0.02,Weather View 32 v70,2013-07-22 02:57:00,
2013-07-21 23:02:00,75.0,75.0,29.80,South,180,2.0,5.0,100,0.00,,,0.02,Weather View 32 v70,2013-07-22 03:02:00,
2013-07-21 23:07:00,75.0,75.0,29.80,South,180,3.0,5.0,100,0.00,,,0.02,Weather View 32 v70,2013-07-22 03:07:00,
2013-07-21 23:12:00,75.0,75.0,29.80,WSW,248,2.0,6.0,100,0.00,,,0.02,Weather View 32 v70,2013-07-22 03:12:00,
2013-07-21 23:17:00,75.0,75.0,29.80,South,180,1.0,6.0,100,0.00,,,0.02,Weather View 32 v70,2013-07-22 03:17:00,
2013-07-21 23:22:00,75.0,75.0,29.80,South,180,3.0,8.0,100,0.00,,,0.02,Weather View 32 v70,2013-07-22 03:22:00,
2013-07-21 23:27:00,75.0,75.0,29.81,WSW,248,3.0,8.0,100,0.00,,,0.02,Weather View 32 v70,2013-07-22 03:27:00,
2013-07-21 23:32:00,75.0,75.0,29.81,South,180,4.0,8.0,100,0.00,,,0.02,Weather View 32 v70,2013-07-22 03:32:00,
2013-07-21 23:37:00,75.0,75.0,29.81,South,180,1.0,8.0,100,0.00,,,0.02,Weather View 32 v70,2013-07-22 03:37:00,
2013-07-21 23:42:00,74.0,74.0,29.81,WSW,248,5.0,8.0,100,0.00,,,0.02,Weather View 32 v70,2013-07-22 03:42:00,
2013-07-21 23:47:00,74.0,74.0,29.81,South,180,4.0,8.0,100,0.00,,,0.02,Weather View 32 v70,2013-07-22 03:47:00,
2013-07-21 23:52:00,74.0,74.0,29.81,South,180,1.0,8.0,100,0.00,,,0.02,Weather View 32 v70,2013-07-22 03:52:00,
2013-07-21 23:57:00,74.0,74.0,29.81,South,180,2.0,8.0,100,0.00,,,0.02,Weather View 32 v70,2013-07-22 03:57:00,